Weather History for Fredericksburg, TX

Change the Weather History Date:

Thursday, October 4, 2012

  Actual Average (KSAT) Record (KSAT)
Temperature  
Mean Temperature 77 °F 74 °F  
Max Temperature 87 °F 85 °F 97 °F (1929)
Min Temperature 67 °F 63 °F 45 °F (1975)
Degree Days  
Heating Degree Days 0 0  
Month to date heating degree days 0  
Since 1 July heating degree days 2  
Cooling Degree Days 12 10  
Month to date cooling degree days 40  
Year to date cooling degree days 2874  
Growing Degree Days 27 (Base 50)    
Moisture  
Dew Point 66 °F    
Average Humidity 75    
Maximum Humidity 96    
Minimum Humidity 43    
Precipitation  
Precipitation 0.00 in 0.13 in 5.42 in (2009)
Month to date precipitation 0.48  
Year to date precipitation 24.45  
Snow  
Snow 0.00 in - - ()
Month to date snowfall  
Since 1 July snowfall  
Since 1 September snowfall  
Snow Depth -    
Sea Level Pressure  
Sea Level Pressure 30.08 in    
Wind  
Wind Speed 8 mph (South)    
Max Wind Speed 16 mph    
Max Gust Speed 21 mph    
Visibility 10 miles    
Events      
T = Trace of Precipitation, MM = Missing Value Source: NWS Daily Summary

Daily Weather History Graph

Daily Weather History Graph

Search for Another Location

Airport:

Trip Planner

Search our weather history database for the weather conditions in past years. The results will help you decide how hot, cold, wet, or windy it might be!

Date:

Astronomy

Oct. 04, 2012 Rise Set
Actual Time 7:31 AM CDT 7:16 PM CDT
Civil Twilight 7:07 AM CDT 7:40 PM CDT
Nautical Twilight 6:39 AM CDT 8:08 PM CDT
Astronomical Twilight 6:11 AM CDT 8:36 PM CDT
Moon 10:12 PM CDT (10/4) 11:30 AM CDT (10/4)
Length of Visible Light 12h 33m
Length of Day
11h 45m
Waning Gibbous, 82% of the Moon is Illuminated
Oct 4
Waning Gibbous
Oct 8
Last Quarter
Oct 15
New
Oct 21
First Quarter
Oct 29
Full

Hourly Weather History & Observations

Time (CDT) Temp. Heat Index Dew Point Humidity Pressure Visibility Wind Dir Wind Speed Gust Speed Precip Events Conditions
12:15 AM 68.0 °F - 62.6 °F 83% 30.05 in 10.0 mi South 6.9 mph - N/A   Clear
12:35 AM 67.8 °F - 63.0 °F 84% 30.05 in 10.0 mi South 4.6 mph - N/A   Scattered Clouds
12:55 AM 67.6 °F - 63.9 °F 88% 30.05 in 10.0 mi South 6.9 mph - N/A   Scattered Clouds
1:15 AM 67.1 °F - 64.4 °F 91% 30.05 in 10.0 mi South 5.8 mph - N/A   Scattered Clouds
1:35 AM 68.0 °F - 65.3 °F 91% 30.05 in 10.0 mi South 6.9 mph - N/A   Mostly Cloudy
1:55 AM 68.5 °F - 66.2 °F 92% 30.05 in 10.0 mi South 8.1 mph - N/A   Overcast
2:15 AM 68.7 °F - 66.4 °F 92% 30.05 in 10.0 mi South 9.2 mph - N/A   Overcast
2:35 AM 69.1 °F - 67.3 °F 94% 30.05 in 10.0 mi South 6.9 mph - N/A   Overcast
2:55 AM 69.4 °F - 67.6 °F 94% 30.05 in 10.0 mi South 6.9 mph - N/A   Overcast
3:15 AM 69.8 °F - 68.0 °F 94% 30.05 in 10.0 mi South 6.9 mph - N/A   Overcast
3:35 AM 69.8 °F - 68.0 °F 94% 30.04 in 10.0 mi South 5.8 mph - N/A   Overcast
3:55 AM 70.0 °F - 68.2 °F 94% 30.04 in 10.0 mi South 5.8 mph - N/A   Overcast
4:15 AM 70.2 °F - 68.2 °F 93% 30.04 in 10.0 mi South 6.9 mph - N/A   Overcast
4:35 AM 69.4 °F - 67.6 °F 94% 30.04 in 10.0 mi South 8.1 mph - N/A   Mostly Cloudy
4:55 AM 69.1 °F - 67.5 °F 95% 30.04 in 10.0 mi South 5.8 mph - N/A   Scattered Clouds
5:15 AM 68.5 °F - 67.5 °F 96% 30.04 in 10.0 mi South 4.6 mph - N/A   Mostly Cloudy
5:55 AM 69.1 °F - 67.5 °F 95% 30.05 in 10.0 mi South 8.1 mph - N/A   Overcast
6:15 AM 69.4 °F - 67.6 °F 94% 30.05 in 10.0 mi South 5.8 mph - N/A   Overcast
6:35 AM 69.8 °F - 67.6 °F 93% 30.05 in 10.0 mi South 6.9 mph - N/A   Overcast
6:55 AM 69.8 °F - 68.0 °F 94% 30.06 in 10.0 mi South 5.8 mph - N/A   Overcast
7:15 AM 69.8 °F - 68.0 °F 94% 30.06 in 10.0 mi South 6.9 mph - N/A   Overcast
7:35 AM 69.8 °F - 68.0 °F 94% 30.06 in 10.0 mi South 6.9 mph - N/A   Overcast
7:55 AM 69.8 °F - 68.0 °F 94% 30.06 in 10.0 mi South 8.1 mph - N/A   Overcast
8:15 AM 69.8 °F - 68.0 °F 94% 30.07 in 10.0 mi South 5.8 mph - N/A   Overcast
8:35 AM 70.2 °F - 68.0 °F 93% 30.07 in 10.0 mi South 9.2 mph - N/A   Overcast
8:55 AM 70.7 °F - 67.6 °F 90% 30.07 in 10.0 mi South 11.5 mph - N/A   Overcast
9:15 AM 71.4 °F - 68.0 °F 89% 30.08 in 10.0 mi South 6.9 mph - N/A   Overcast
9:35 AM 71.6 °F - 67.5 °F 87% 30.08 in 10.0 mi South 9.2 mph - N/A   Mostly Cloudy
9:55 AM 73.6 °F - 67.6 °F 82% 30.09 in 10.0 mi South 11.5 mph - N/A   Scattered Clouds
10:15 AM 73.6 °F - 67.3 °F 81% 30.09 in 10.0 mi South 10.4 mph - N/A   Clear
10:35 AM 75.7 °F - 68.2 °F 77% 30.09 in 10.0 mi South 11.5 mph - N/A   Scattered Clouds
10:55 AM 76.6 °F - 67.8 °F 74% 30.09 in 10.0 mi SSE 11.5 mph - N/A   Scattered Clouds
11:15 AM 77.4 °F - 67.8 °F 72% 30.10 in 10.0 mi South 13.8 mph 17.3 mph N/A   Clear
11:35 AM 78.4 °F - 68.0 °F 70% 30.10 in 10.0 mi South 9.2 mph - N/A   Clear
11:55 AM 79.9 °F - 68.0 °F 67% 30.10 in 10.0 mi South 9.2 mph - N/A   Clear
12:15 PM 80.1 °F 82.7 °F 68.2 °F 67% 30.09 in 10.0 mi South 10.4 mph - N/A   Clear
12:35 PM 80.8 °F 83.5 °F 67.8 °F 65% 30.09 in 10.0 mi South 12.7 mph 19.6 mph N/A   Clear
12:55 PM 82.4 °F 85.4 °F 68.0 °F 62% 30.09 in 10.0 mi SSE 8.1 mph 16.1 mph N/A   Clear
1:35 PM 83.7 °F 86.2 °F 66.9 °F 57% 30.09 in 10.0 mi South 10.4 mph - N/A   Clear
1:55 PM 85.1 °F 86.6 °F 64.4 °F 50% 30.09 in 10.0 mi SSW 10.4 mph - N/A   Clear
2:15 PM 85.6 °F 86.8 °F 63.7 °F 48% 30.09 in 10.0 mi SSW 9.2 mph 16.1 mph N/A   Clear
2:35 PM 86.0 °F 87.1 °F 63.3 °F 47% 30.08 in 10.0 mi South 10.4 mph - N/A   Clear
2:55 PM 86.5 °F 87.8 °F 64.2 °F 47% 30.07 in 10.0 mi South 9.2 mph 18.4 mph N/A   Clear
3:15 PM 86.9 °F 87.8 °F 63.0 °F 45% 30.06 in 10.0 mi South 16.1 mph - N/A   Clear
3:35 PM 87.3 °F 88.0 °F 63.0 °F 44% 30.06 in 10.0 mi SSW 12.7 mph 18.4 mph N/A   Clear
3:55 PM 87.1 °F 87.5 °F 62.2 °F 43% 30.06 in 10.0 mi South 13.8 mph 20.7 mph N/A   Clear
4:15 PM 86.9 °F 87.8 °F 63.5 °F 45% 30.06 in 10.0 mi SSE 10.4 mph - N/A   Clear
4:35 PM 86.9 °F 87.5 °F 62.8 °F 44% 30.06 in 10.0 mi South 13.8 mph - N/A   Clear
4:55 PM 86.7 °F 87.3 °F 62.6 °F 44% 30.06 in 10.0 mi SSW 12.7 mph - N/A   Clear
5:15 PM 86.5 °F 87.8 °F 64.4 °F 47% 30.06 in 10.0 mi South 11.5 mph - N/A   Clear
5:35 PM 86.0 °F 87.6 °F 64.8 °F 49% 30.06 in 10.0 mi South 10.4 mph 17.3 mph N/A   Clear
5:55 PM 85.1 °F 86.4 °F 64.2 °F 49% 30.06 in 10.0 mi South 13.8 mph - N/A   Clear
6:15 PM 84.6 °F 85.6 °F 63.5 °F 49% 30.06 in 10.0 mi South 12.7 mph 17.3 mph N/A   Clear
6:35 PM 83.7 °F 84.9 °F 63.5 °F 51% 30.07 in 10.0 mi South 10.4 mph - N/A   Clear
6:55 PM 82.4 °F 83.5 °F 63.1 °F 52% 30.08 in 10.0 mi South 6.9 mph - N/A   Clear
7:15 PM 80.6 °F 82.3 °F 64.4 °F 58% 30.08 in 10.0 mi SSE 4.6 mph - N/A   Clear
7:35 PM 79.7 °F - 64.8 °F 60% 30.09 in 10.0 mi SSE 3.5 mph - N/A   Clear
7:55 PM 77.9 °F - 64.9 °F 64% 30.09 in 10.0 mi South 3.5 mph - N/A   Clear
8:15 PM 75.7 °F - 65.1 °F 69% 30.09 in 10.0 mi Calm Calm - N/A   Clear
8:35 PM 70.9 °F - 65.1 °F 82% 30.10 in 7.0 mi Calm Calm - N/A   Clear
8:55 PM 74.5 °F - 65.3 °F 73% 30.11 in 10.0 mi SE 4.6 mph - N/A   Clear
9:15 PM 75.2 °F - 66.6 °F 74% 30.11 in 10.0 mi SE 3.5 mph - N/A   Clear
9:35 PM 74.3 °F - 66.9 °F 78% 30.11 in 10.0 mi Calm Calm - N/A   Clear
9:55 PM 73.6 °F - 67.3 °F 81% 30.12 in 10.0 mi SSE 4.6 mph - N/A   Scattered Clouds
10:15 PM 75.0 °F - 70.2 °F 85% 30.12 in 10.0 mi SSE 8.1 mph - N/A   Scattered Clouds
10:35 PM 74.5 °F - 70.3 °F 87% 30.13 in 10.0 mi SSE 5.8 mph - N/A   Clear
10:55 PM 74.3 °F - 70.7 °F 88% 30.13 in 10.0 mi SSE 8.1 mph - N/A   Scattered Clouds
11:15 PM 73.9 °F - 70.7 °F 90% 30.13 in 10.0 mi SSE 6.9 mph - N/A   Mostly Cloudy
11:35 PM 73.6 °F - 70.7 °F 91% 30.13 in 10.0 mi SSE 6.9 mph - N/A   Mostly Cloudy
11:55 PM 73.4 °F - 70.7 °F 91% 30.13 in 10.0 mi SSE 5.8 mph - N/A   Mostly Cloudy